Location: Las Navas
(40.6024°N, 4.3345°W)
Time: 01:05:22
(UTC+00:00)

Cosmos 1758 - Pass Details

Date: 03 April 2020
Orbit: 539 x 563 km, 82.5° (Epoch: 27 May)

Event Time Altitude Azimuth Distance (km) Brightness Sun altitude
Rises 19:21:41 0° 180° (S) 2,739 6.7 -7.7°
Reaches altitude 10° 19:23:51 10° 178° (S) 1,849 5.8 -8.1°
Maximum altitude 19:27:54 69° 96° (E) 606 3.3 -8.9°
Drops below altitude 10° 19:31:59 10° 13° (NNE) 1,863 6.1 -9.6°
Sets 19:34:10 0° 11° (N) 2,762 7.0 -10.0°
